Regional Weather Roundup
Issued by NWS

Home | Current Version | Previous Version | Graphics & Text | Print | Product List | Glossary On
Versions: 1 2 3 4 5 6 7 8 9 10 11 12 13 14 15 16 17 18 19 20 21 22 23 24 25 26 27 28 29 30 31 32 33 34 35 36 37 38 39 40 41 42 43 44 45 46 47 48 49 50
000
ASUS45 KPSR 280900
RWRAZ

ARIZONA REGIONAL HOURLY WEATHER ROUNDUP
NATIONAL WEATHER SERVICE PHOENIX AZ
200 AM MST SAT MAR 28 2015

NOTE: FAIR INDICATES FEW OR NO CLOUDS BELOW 12,000 FEET WITH NO
SIGNIFICANT WEATHER AND/OR OBSTRUCTIONS TO VISIBILITY.

AZZ001>003-036-281000-
NORTHWEST ARIZONA

CITY           SKY/WX    TMP DP  RH WIND       PRES   REMARKS
KINGMAN        CLEAR     48  25  40 CALM      30.14F
$$

AZZ004>008-015-016-018-281000-
NORTH CENTRAL ARIZONA

CITY           SKY/WX    TMP DP  RH WIND       PRES   REMARKS
GRAND CANYON   PTCLDY    27  19  72 CALM      30.31S
WILLIAMS       PTCLDY    36  21  55 S10       30.37F WCI  28
PRESCOTT       PTCLDY    46  21  37 S10       30.24S
FLAGSTAFF      NOT AVBL
PAYSON         CLEAR     50  23  34 CALM      30.25S
PAGE           CLEAR     58  21  24 CALM      30.16S
$$

AZZ009>014-017-281000-
NORTHEAST ARIZONA

CITY           SKY/WX    TMP DP  RH WIND       PRES   REMARKS
WINSLOW        NOT AVBL
SAINT JOHNS    PTCLDY    46  18  32 S5        30.25S
WINDOW ROCK    CLEAR     34  17  50 S3        30.30S
SHOW LOW       CLEAR     39  14  35 S6        30.32S WCI  35
$$

AZZ023-281000-
GREATER PHOENIX AREA

CITY           SKY/WX    TMP DP  RH WIND       PRES   REMARKS
PHOENIX        CLEAR     69  30  23 SE6       30.00S
DEER VALLEY    CLEAR     68  25  19 NE6       30.03R
SCOTTSDALE     CLEAR     64  35  34 CALM      30.04S
$$

AZZ027-028-281000-
SOUTHWEST MARICOPA COUNTY AND PINAL COUNTY

CITY           SKY/WX    TMP DP  RH WIND       PRES   REMARKS
CASA GRANDE    CLEAR     59  23  25 CALM      30.03S
GILA BEND      FAIR      67  22  18 S9        29.99F
$$

AZZ503-504-507>509-281000-
SOUTHEAST ARIZONA

CITY           SKY/WX    TMP DP  RH WIND       PRES   REMARKS
TUCSON         CLEAR     60  24  25 S8        30.12S
NOGALES        CLEAR     50  21  32 E7        30.18R
SAFFORD        CLEAR     50  20  30 SE6       30.11S
$$

AZZ020-021-025-026-031-281000-
SOUTHWEST ARIZONA

CITY           SKY/WX    TMP DP  RH WIND       PRES   REMARKS
YUMA           CLEAR     69  37  30 CALM      29.98R
$$

CAZ031-033-041-043-047-048-061-281000-
SOUTHERN CALIFORNIA

CITY           SKY/WX    TMP DP  RH WIND       PRES   REMARKS
DOWNTOWN L.A.  CLEAR     62  56  80 CALM      30.05F
L.A. AIRPORT   CLEAR     60  56  86 E3        30.05F
SAN DIEGO      CLOUDY    63  59  88 CALM      30.08F FOG
ONTARIO        CLEAR     68  41  37 NE3       30.07S
RIVERSIDE      CLEAR     64  42  44 SE3       30.07S
PALM SPRINGS   CLEAR     76  34  21 NW6       30.01S
EL CENTRO NAS  CLEAR     69  29  22 W7        29.96S
IMPERIAL       CLEAR     66  40  38 W6        29.95F
BLYTHE         CLEAR     66  32  28 SE3       29.98S
$$

NVZ020-UTZ003-281000-
SOUTHERN NEVADA-UTAH

CITY           SKY/WX    TMP DP  RH WIND       PRES   REMARKS
LAS VEGAS      NOT AVBL
SALT LAKE CITY CLEAR     52  34  50 SE10      30.10F
$$

NMZ009-TXZ055-281000-
NEW MEXICO-WEST TEXAS

CITY           SKY/WX    TMP DP  RH WIND       PRES   REMARKS
ALBUQUERQUE    CLEAR     53  17  24 SE3       30.19F
EL PASO        CLEAR     61  19  19 S5        30.12F
$$


........................KEY........................
SKY/WX - SKY CONDITION/WEATHER
TMP    - TEMPERATURE IN FAHRENHEIT
DP     - DEW POINT IN FAHRENHEIT
RH     - RELATIVE HUMIDITY IN PERCENT
WIND   - DIRECTION AND SPEED IN MILES PER HOUR (MPH)
VRB    - VARIABLE WIND DIRECTION
PRES   - MEAN SEA LEVEL PRESSURE IN INCHES OF MERCURY
         F - FALLING PRESSURE   R - RISING PRESSURE
         S - STEADY PRESSURE
VSB    - VISIBILITY IN MILES
HX     - HEAT INDEX IN FAHRENHEIT
WCI    - WIND CHILL INDEX IN FAHRENHEIT
TC     - TEMPERATURE IN CELSIUS WHICH IS ALSO KNOWN AS
         TEMPERATURE IN CENTIGRADE
AFB    - AIR FORCE BASE
         LUKE AFB IS LUKE AIR FORCE BASE
         DAVIS-MONTHAN IS DAVIS-MONTHAN AIR FORCE BASE
NAS    - NAVAL AIR STATION
         EL CENTRO NAS IS EL CENTRO NAVAL AIR STATION
N/A    - NOT AVAILABLE



USA.gov is the U.S. government's official web portal to all federal, state and local government web resources and services.